Regional Weather Roundup
Issued by NWS

Home | Current Version | Previous Version | Text Only | Print | Product List | Glossary Off
Versions: 1 2 3 4 5 6 7 8 9 10 11 12 13 14 15 16 17 18 19 20 21 22 23 24 25 26 27 28 29 30 31 32 33 34 35 36 37 38 39 40 41 42 43 44 45 46 47 48 49 50

000
ASUS43 KDTX 222210
RWRMI
MICHIGAN HOURLY REGIONAL WEATHER ROUNDUP
NATIONAL WEATHER SERVICE DETROIT/PONTIAC MI
500 PM EST MON DEC 22 2014

NOTE: "FAIR" INDICATES FEW OR NO CLOUDS BELOW 12,000 FEET WITH NO
SIGNIFICANT WEATHER AND/OR OBSTRUCTION TO VISIBILITY.

MIZ047>049-052>055-059>063-066>070-074>076-081>083-222300-
SOUTHEAST LOWER MICHIGAN

CITY           SKY/WX    TMP DP  RH WIND       PRES   REMARKS
ADRIAN         CLOUDY    35  30  82 E13       29.91F
ALMA           CLOUDY    34  29  80 E7        29.91F
ANN ARBOR      MOCLDY    37  30  75 E10       29.92F
BAD AXE        MOCLDY    32  29  89 E7        29.98F
DETROIT CITY   CLOUDY    37  30  75 E9        29.96F
DETROIT        CLOUDY    37  30  75 E8        29.95S
FLINT          MOCLDY    38  27  64 SE13      29.93S
GROSSE ILE     MOCLDY    36  32  87 E6        29.94F
HILLSDALE      LGT RAIN  36  32  86 E10G17    29.86S
HOWELL         CLOUDY    36  29  76 E13       29.91S

CITY           SKY/WX    TMP DP  RH WIND       PRES   REMARKS
JACKSON        CLOUDY    37  28  70 E15       29.88F
LAMBERTVILLE   CLOUDY    36  30  80 E7        29.92F
LANSING        CLOUDY    38  28  67 E10       29.90F
LAPEER         NOT AVBL
MASON          CLOUDY    36  29  74 SE8       29.89F
MONROE         MOCLDY    36  30  80 E7        29.92F
MT. CLEMENS    MOCLDY    35  33  95 E10       29.95R
PONTIAC        CLOUDY    35  28  75 E9        29.92S
PORT HOPE        N/A     33  27  78 SE12      30.00S
PORT HURON     MOCLDY    34  30  86 SE8       29.99R
TRI CITIES     CLOUDY    37  28  70 E8        29.95S
YPSILANTI      MOCLDY    40  29  64 E8        29.94F
$$
MIZ043>046-050>051-056>058-064>065-071>073-077>080-222300-
SOUTHWEST LOWER MICHIGAN

CITY           SKY/WX    TMP DP  RH WIND       PRES   REMARKS
BATTLE CREEK   LGT RAIN  38  31  76 E10       29.84F
BENTON HARBOR  LGT RAIN  35  34  96 SE12      29.79S FOG
BIG RAPIDS     CLOUDY    35  29  80 SE12      29.87F
COLDWATER      RAIN      36  32  86 MISG      29.84F
HOLLAND        LGT RAIN  37  33  85 E14       29.82F FOG
GRAND RAPIDS   LGT RAIN  35  31  85 E12       29.86S FOG
KALAMAZOO      LGT RAIN  37  32  82 E12       29.82F
MARSHALL       LGT RAIN  36  31  82 E7        29.86S
MUSKEGON       LGT RAIN  36  32  85 E13       29.83F FOG
$$
MIZ016>042-222300-
NORTHERN LOWER MICHIGAN

CITY           SKY/WX    TMP DP  RH WIND       PRES   REMARKS
ALPENA         CLOUDY    33  27  78 SE8       30.00S
BEAVER ISLAND  MOCLDY    35  27  74 E10       29.93S
BELLAIRE       CLOUDY    36  26  66 E5        29.92F
CADILLAC       CLOUDY    32  25  77 E14       29.87S
CHARLEVOIX     CLOUDY    35  26  70 SE12      29.95S
FRANKFORT      CLOUDY    36  27  69 SE10G16   29.86F
GAYLORD        CLOUDY    29  24  82 VRB5      29.92F
GRAYLING       CLOUDY    33  26  77 E10       29.94S
HARBOR SPRINGS MOCLDY    33  26  75 E9        29.94F
HOUGHTON LAKE  CLOUDY    31  24  75 E8        29.93S
MANISTEE       CLOUDY    36  25  64 E10       29.86F
OSCODA         CLOUDY    33  28  80 E7        29.99F
PELLSTON       PTCLDY    33  26  75 SE10      29.96S
TRAVERSE CITY  CLOUDY    36  26  67 E7        29.90S
$$
MIZ007>008-015-222300-
EASTERN UPPER MICHIGAN

CITY           SKY/WX    TMP DP  RH WIND       PRES   REMARKS
KINROSS        CLOUDY    34  30  86 SE20      29.98S
MACKINAC ISLAN PTCLDY    34  28  79 SE10G21   29.97R
NEWBERRY       CLEAR     30  28  90 E8        29.94S
S. S. MARIE    CLOUDY    34  27  75 SE10      29.99F
$$
MIZ004>006-011>014-085-222300-
CENTRAL UPPER MICHIGAN

CITY           SKY/WX    TMP DP  RH WIND       PRES   REMARKS
MANISTIQUE     CLOUDY    33  30  88 E8        29.92S
ESCANABA       CLOUDY    34  28  80 E8        29.87F
MENOMINEE      CLOUDY    36  30  80 E7        29.83F
SAWYER-GWINN   CLOUDY    32  30  93 SE9G17    29.86R FOG
$$
MIZ001>003-009>011-084-222300-
WESTERN UPPER MICHIGAN

CITY           SKY/WX    TMP DP  RH WIND       PRES   REMARKS
IRON MOUNTAIN  CLOUDY    33  30  88 E8        29.81F FOG
HOUGHTON       CLOUDY    35  32  88 SE8       29.80R
COPPER HARBOR    N/A     36  33  89 S7        29.83S
IRONWOOD       CLOUDY    36  34  93 SE7       29.71S
$$

ABBREVIATIONS USED IN REMARKS
   TC - TEMPERATURE IN CELSIUS
  WCI - WIND CHILL INDEX
   HX - HEAT INDEX
  VSB - VISIBILITY



USA.gov is the U.S. government's official web portal to all federal, state and local government web resources and services.